Lid_Strength_Index
7 7 8 7 4 3 3 3 3 3 3 3 4 4 3 3 4 4 2 2 2 2 3 4 4 4 4 4 4 4 4 5 5 5 6 6 6 6 7 7 7 7 5
8 8 9 9 8 5 4 4 3 3 2 3 3 3 3 3 2 2 3 3 3 3 3 3 4 4 4 4 4 5 5 5 6 5 6 6 4 6 7 7 7 7 6
7 9 10 9 10 8 7 5 4 3 3 3 3 3 3 3 3 3 3 3 2 3 3 3 3 4 4 4 4 4 5 5 6 6 4 7 7 7 6 7 8 8 8
10 10 10 10 10 9 9 8 8 9 8 4 3 4 3 4 4 4 3 3 3 3 3 3 4 4 4 3 4 4 4 4 3 5 4 5 5 6 7 8 9 9 8
10 10 10 9 9 8 9 9 9 9 11 11 8 4 4 4 4 4 4 4 3 3 3 3 3 4 4 4 4 4 4 4 4 5 6 6 6 7 7 6 5 7 8
9 10 9 8 8 9 8 7 7 7 7 8 9 8 5 3 4 6 6 5 5 4 3 3 3 3 3 4 4 4 4 4 4 2 3 4 5 6 7 7 6 5 7
9 9 8 8 8 8 8 7 7 8 7 7 7 8 9 8 7 7 7 7 6 5 4 3 3 3 3 3 3 3 4 4 2 2 2 3 3 3 4 5 4 6 7
9 8 8 8 8 8 8 8 8 8 8 7 7 7 6 6 7 6 5 4 4 3 2 3 3 4 4 3 3 3 3 3 4 4 4 3 5 4 4 4 5 6 8
9 7 7 8 8 8 9 9 8 8 8 8 8 8 8 8 8 8 7 7 6 4 4 4 4 5 5 4 4 5 6 6 6 6 6 6 7 7 6 5 5 5 8
8 8 7 8 8 9 9 9 9 9 10 10 10 10 10 10 10 10 10 10 9 8 7 7 7 7 7 7 6 6 7 8 7 7 7 8 8 8 8 8 7 7 7
8 8 8 9 9 9 10 10 9 10 11 12 12 13 13 13 12 13 13 12 12 11 11 10 9 9 8 7 8 8 7 8 8 8 8 9 9 9 9 10 10 11 11
8 8 9 10 9 9 9 10 10 11 11 12 12 13 13 14 14 14 14 13 13 13 12 12 11 11 11 10 10 10 9 9 9 9 10 10 9 10 11 11 11 13 11
9 9 9 10 10 10 10 10 11 11 12 12 13 13 14 14 15 14 14 14 13 12 12 12 12 13 12 12 12 12 11 10 11 11 11 11 11 12 12 12 13 13 13
8 9 10 10 10 10 10 9 11 11 11 12 13 13 14 13 14 13 13 13 14 14 13 13 13 13 13 13 12 12 12 13 13 13 13 13 14 14 15 15 15 14 14
9 9 9 10 10 10 10 10 10 11 11 11 11 12 12 12 12 13 13 13 12 13 13 13 13 13 13 12 12 12 12 12 12 12 11 11 11 10 12 14 15 15 15
8 9 9 10 11 11 11 10 11 11 11 12 13 12 12 12 12 12 12 13 12 12 13 13 12 11 11 10 10 12 13 13 13 14 14 13 13 11 10 10 10 12 15
8 8 8 9 10 11 11 11 11 11 12 12 12 12 12 12 12 12 12 12 12 12 12 12 11 11 11 10 11 12 14 14 15 17 17 16 14 15 15 12 12 11 11
8 7 8 9 10 10 11 11 10 11 12 12 12 12 12 13 12 13 13 13 12 12 12 13 13 12 11 10 11 13 17 18 19 19 19 18 17 15 16 16 16 16 16
8 7 7 9 10 10 11 12 12 12 12 13 12 12 12 12 12 13 13 13 13 13 14 14 14 15 14 12 12 15 18 17 18 17 17 16 16 12 13 16 16 17 17
8 9 9 10 10 11 10 11 11 11 13 12 12 12 11 12 13 13 13 14 13 14 15 16 16 13 15 12 13 15 17 18 17 17 17 13 15 13 13 17 18 19 18
10 10 10 10 11 11 11 11 12 12 12 11 11 11 12 12 13 13 13 14 15 16 18 17 17 17 15 14 13 14 17 17 18 18 17 17 13 13 14 14 18 17 17
10 10 11 11 11 11 11 12 13 12 11 11 12 12 12 12 12 13 15 15 17 18 18 18 18 17 18 13 13 13 14 15 18 18 17 17 14 14 14 15 14 13 15
10 10 11 11 11 11 12 13 13 12 12 12 12 12 12 13 13 14 16 17 18 18 19 18 18 18 17 18 13 13 13 14 17 17 16 14 14 15 16 14 13 14 18
11 11 12 11 12 12 12 12 12 12 12 12 13 13 13 13 14 14 16 18 18 19 18 18 19 19 19 18 18 17 18 15 16 16 18 16 16 15 16 16 17 17 18
11 12 11 12 12 13 13 12 12 12 13 13 13 13 13 14 15 16 17 18 18 18 19 19 19 20 20 18 16 16 17 18 16 17 19 20 20 19 19 19 18 18 18
11 12 11 12 13 13 12 11 12 12 12 13 13 14 14 14 15 17 18 14 15 14 14 14 17 17 15 14 13 13 13 14 14 18 20 21 21 21 19 19 19 19 18